This is the latest recevied weather packets stored in our database for station/object DB0LS-15. If no packets are shown the sender has not sent any weather packets the latest 10 day(s).
| Time | Temp. | Humidity | Pressure | Rain* | Wind** | Luminosity | Snow |
|---|---|---|---|---|---|---|---|
| 1777667445 | 17.78° C | 46% | 1008 hPa | 0 mm | - | - | - |
| 1777666841 | 17.22° C | 44% | 1008.1 hPa | 0 mm | - | - | - |
| 1777666238 | 17.22° C | 44% | 1008 hPa | 0 mm | - | - | - |
| 1777665634 | 18.89° C | 39% | 1008 hPa | 0 mm | - | - | - |
| 1777665030 | 18.89° C | 39% | 1008.2 hPa | 0 mm | - | - | - |
| 1777664426 | 18.89° C | 39% | 1008.1 hPa | 0 mm | - | - | - |
| 1777663822 | 18.89° C | 40% | 1008.1 hPa | 0 mm | - | - | - |
| 1777663219 | 18.89° C | 40% | 1008.1 hPa | 0 mm | - | - | - |
| 1777662675 | 19.44° C | 38% | 1008.1 hPa | 0 mm | - | - | - |
| 1777662071 | 19.44° C | 38% | 1008 hPa | 0 mm | - | - | - |
| 1777661467 | 19.44° C | 38% | 1008 hPa | 0 mm | - | - | - |
| 1777660864 | 20° C | 37% | 1007.9 hPa | 0 mm | - | - | - |
| 1777660260 | 20° C | 36% | 1007.9 hPa | 0 mm | - | - | - |
| 1777659656 | 20.56° C | 37% | 1007.9 hPa | 0 mm | - | - | - |
| 1777659052 | 20.56° C | 38% | 1007.8 hPa | 0 mm | - | - | - |
| 1777658449 | 21.11° C | 36% | 1007.9 hPa | 0 mm | - | - | - |
| 1777657845 | 21.11° C | 37% | 1007.8 hPa | 0 mm | - | - | - |
| 1777657241 | 21.11° C | 36% | 1007.8 hPa | 0 mm | - | - | - |
| 1777656637 | 21.11° C | 36% | 1007.7 hPa | 0 mm | - | - | - |
| 1777656034 | 21.67° C | 36% | 1007.9 hPa | 0 mm | - | - | - |
| 1777655430 | 21.67° C | 34% | 1007.8 hPa | 0 mm | - | - | - |
| 1777654826 | 21.11° C | 35% | 1007.9 hPa | 0 mm | - | - | - |
| 1777654222 | 21.67° C | 34% | 1008 hPa | 0 mm | - | - | - |
| 1777653618 | 21.67° C | 34% | 1008.1 hPa | 0 mm | - | - | - |
| 1777653075 | 21.67° C | 34% | 1008.1 hPa | 0 mm | - | - | - |
* Rain latest hour (hover to see other rain measurements)
** Current wind speed in m/s (hover to see current wind gust speed)